Location: Miles
(41.4492°N, 81.6087°W)
Time: 07:11:23
(UTC+00:00)

Vanguard 1 Rocket - Pass Details

Date: 11 September 2024
Orbit: 650 x 4218 km, 34.3° (Epoch: 05 October)

Event Time Altitude Azimuth Distance (km) Brightness Sun altitude
Rises 10:08:45 0° 238° (WSW) 5,991 - -10.9°
Exits shadow 10:11:30 - 236° (SW) 5,461 10.8 -10.4°
Reaches altitude 10° 10:12:03 10° 235° (SW) 5,359 10.7 -10.3°
Maximum altitude 10:29:47 63° 159° (SSE) 4,057 10.7 -7.0°
Drops below altitude 10° 10:55:24 10° 87° (E) 7,343 14.1 -2.3°
Sets 11:00:55 0° 85° (E) 8,205 16.5 -1.3°
